Weather History for KWDG - August, 2014

Change the Weather History Date:

Saturday, August 23, 2014

  Actual Average Record
Temperature  
Mean Temperature 84 °F -  
Max Temperature 105 °F 90 °F 105 °F (2011)
Min Temperature 64 °F 68 °F 64 °F (2014)
Cooling Degree Days 20    
Growing Degree Days 34 (Base 50)    
Moisture  
Dew Point 60 °F    
Average Humidity 57    
Maximum Humidity 88    
Minimum Humidity 20    
Precipitation  
Precipitation 0.00 in - - ()
Sea Level Pressure  
Sea Level Pressure 29.88 in    
Wind  
Wind Speed 10 mph (South)    
Max Wind Speed 23 mph    
Max Gust Speed 30 mph    
Visibility 10 miles    
Events      
Averages and records for this station are not official NWS values.
T = Trace of Precipitation, MM = Missing Value Source: NWS Daily Summary

Daily Weather History Graph

Daily Weather History Graph

Search for Another Location

Airport or City:

Trip Planner

Search our weather history database for the weather conditions in past years. The results will help you decide how hot, cold, wet, or windy it might be!

Date:

Astronomy

Aug. 23, 2014 Rise Set
Actual Time 6:55 AM CDT 8:11 PM CDT
Civil Twilight 6:28 AM CDT 8:38 PM CDT
Nautical Twilight 5:56 AM CDT 9:10 PM CDT
Astronomical Twilight 5:23 AM CDT 9:43 PM CDT
Moon 5:13 AM CDT (8/23) 6:56 PM CDT (8/23)
Length of Visible Light 14h 09m
Length of Day
13h 15m
Waning Crescent, 3% of the Moon is Illuminated
Aug 23
Waning Crescent
Aug 25
New
Sep 2
First Quarter
Sep 8
Full
Sep 15
Last Quarter

Hourly Weather History & Observations

Time (CDT) Temp. Heat Index Dew Point Humidity Pressure Visibility Wind Dir Wind Speed Gust Speed Precip Events Conditions
12:15 AM 77.0 °F - 64.4 °F 65% 29.90 in 10.0 mi South 9.2 mph - N/A   Clear
12:35 AM 77.0 °F - 64.4 °F 65% 29.90 in 10.0 mi South 10.4 mph - N/A   Clear
12:55 AM 78.8 °F - 64.4 °F 61% 29.90 in 10.0 mi South 10.4 mph - N/A   Clear
1:15 AM 77.0 °F - 64.4 °F 65% 29.90 in 10.0 mi South 8.1 mph - N/A   Clear
1:35 AM 73.4 °F - 64.4 °F 73% 29.90 in 10.0 mi South 6.9 mph - N/A   Clear
1:55 AM 73.4 °F - 62.6 °F 69% 29.90 in 10.0 mi South 6.9 mph - N/A   Clear
2:15 AM 71.6 °F - 62.6 °F 73% 29.90 in 10.0 mi South 8.1 mph - N/A   Clear
2:55 AM 71.6 °F - 62.6 °F 73% 29.90 in 10.0 mi South 6.9 mph - N/A   Clear
3:15 AM 69.8 °F - 62.6 °F 78% 29.90 in 10.0 mi South 5.8 mph - N/A   Clear
3:35 AM 69.8 °F - 62.6 °F 78% 29.90 in 10.0 mi South 4.6 mph - N/A   Clear
3:55 AM 69.8 °F - 62.6 °F 78% 29.90 in 10.0 mi South 4.6 mph - N/A   Clear
4:15 AM 69.8 °F - 62.6 °F 78% 29.90 in 10.0 mi South 5.8 mph - N/A   Clear
4:35 AM 68.0 °F - 60.8 °F 78% 29.90 in 10.0 mi South 5.8 mph - N/A   Clear
4:55 AM 68.0 °F - 60.8 °F 78% 29.90 in 10.0 mi South 6.9 mph - N/A   Clear
5:15 AM 68.0 °F - 60.8 °F 78% 29.91 in 10.0 mi South 6.9 mph - N/A   Clear
5:35 AM 66.2 °F - 60.8 °F 83% 29.91 in 10.0 mi South 5.8 mph - N/A   Clear
5:55 AM 64.4 °F - 60.8 °F 88% 29.91 in 10.0 mi South 4.6 mph - N/A   Clear
6:20 AM 66.2 °F - 60.8 °F 83% 29.92 in 10.0 mi SSE 6.9 mph - N/A   Clear
6:27 AM 66.2 °F - 60.8 °F 83% 29.92 in 10.0 mi SSE 6.9 mph - N/A   Clear
6:50 AM 66.2 °F - 60.8 °F 83% 29.91 in 10.0 mi South 9.2 mph - N/A   Clear
7:50 AM 69.8 °F - 64.4 °F 83% 29.92 in 10.0 mi SSE 11.5 mph - N/A   Clear
8:50 AM 78.8 °F - 62.6 °F 57% 29.92 in 10.0 mi South 17.3 mph - N/A   Clear
10:50 AM 105.8 °F 105.5 °F 57.2 °F 20% 29.91 in 10.0 mi South 20.7 mph 26.5 mph N/A   Clear
12:50 PM 100.4 °F 98.8 °F 55.4 °F 22% 29.89 in 10.0 mi SSW 23.0 mph 28.8 mph N/A   Partly Cloudy
1:50 PM 102.2 °F 100.4 °F 53.6 °F 20% 29.88 in 10.0 mi South 20.7 mph 28.8 mph N/A   Partly Cloudy
2:50 PM 102.2 °F 100.4 °F 53.6 °F 20% 29.86 in 10.0 mi South 18.4 mph 29.9 mph N/A   Scattered Clouds
3:50 PM 102.2 °F 100.4 °F 53.6 °F 20% 29.84 in 10.0 mi South 18.4 mph 26.5 mph N/A   Mostly Cloudy
4:55 PM 100.4 °F 98.4 °F 53.6 °F 21% 29.83 in 10.0 mi South 15.0 mph 21.9 mph N/A   Mostly Cloudy
5:50 PM 100.4 °F 98.4 °F 53.6 °F 21% 29.81 in 10.0 mi South 18.4 mph 25.3 mph N/A   Mostly Cloudy
6:50 PM 98.6 °F 97.2 °F 55.4 °F 24% 29.81 in 10.0 mi SSE 17.3 mph 23.0 mph N/A   Mostly Cloudy
7:50 PM 91.4 °F 90.7 °F 59.0 °F 34% 29.81 in 10.0 mi SE 10.4 mph - N/A   Mostly Cloudy
8:50 PM 86.0 °F 85.4 °F 59.0 °F 40% 29.82 in 10.0 mi SE 11.5 mph - N/A   Mostly Cloudy
9:15 PM 86.0 °F 85.4 °F 59.0 °F 40% 29.83 in 10.0 mi SSE 12.7 mph - N/A   Clear
9:35 PM 82.4 °F 82.5 °F 59.0 °F 45% 29.84 in 10.0 mi SSE 10.4 mph - N/A   Clear
9:55 PM 80.6 °F 81.1 °F 59.0 °F 48% 29.84 in 10.0 mi SSE 10.4 mph - N/A   Clear
10:15 PM 80.6 °F 81.1 °F 59.0 °F 48% 29.85 in 10.0 mi SSE 9.2 mph - N/A   Clear
10:35 PM 78.8 °F - 59.0 °F 51% 29.85 in 10.0 mi SSE 9.2 mph - N/A   Clear
10:55 PM 77.0 °F - 59.0 °F 54% 29.85 in 10.0 mi SSE 9.2 mph - N/A   Clear
11:15 PM 77.0 °F - 59.0 °F 54% 29.86 in 10.0 mi SSE 9.2 mph - N/A   Clear
11:35 PM 77.0 °F - 59.0 °F 54% 29.86 in 10.0 mi South 8.1 mph - N/A   Clear
11:55 PM 73.4 °F - 60.8 °F 65% 29.86 in 10.0 mi South 6.9 mph - N/A   Clear